| time (UTC) | temp F | wind direction | speed knots | gust knots | rain 1hr in | rain 24hr in | rain mn in | humidity % | barometer mb |
| 20260510202120 | 84 | 305 | 0.0 | 3.5 | 0.00 | 0.00 | 0.00 | 25 | 1016.5 |
| 20260510201617 | 84 | 146 | 2.6 | 3.5 | 0.00 | 0.00 | 0.00 | 25 | 1016.6 |
| 20260510201114 | 83 | 248 | 3.5 | 5.2 | 0.00 | 0.00 | 0.00 | 26 | 1016.5 |
| 20260510200610 | 84 | 306 | 3.5 | 5.2 | 0.00 | 0.00 | 0.00 | 25 | 1016.7 |
| 20260510200109 | 84 | 201 | 0.9 | 3.5 | 0.00 | 0.00 | 0.00 | 25 | 1016.7 |
| 20260510195606 | 84 | 210 | 1.7 | 1.7 | 0.00 | 0.00 | 0.00 | 25 | 1016.8 |
| 20260510195102 | 83 | 346 | 2.6 | 5.2 | 0.00 | 0.00 | 0.00 | 25 | 1016.9 |
| 20260510194556 | 84 | 217 | 2.6 | 4.3 | 0.00 | 0.00 | 0.00 | 25 | 1016.9 |
| 20260510194053 | 83 | 221 | 1.7 | 5.2 | 0.00 | 0.00 | 0.00 | 26 | 1017.0 |
| 20260510193553 | 83 | 227 | 1.7 | 4.3 | 0.00 | 0.00 | 0.00 | 26 | 1017.0 |
| 20260510193049 | 84 | 321 | 2.6 | 3.5 | 0.00 | 0.00 | 0.00 | 23 | 1016.9 |
| 20260510192549 | 84 | 289 | 0.9 | 0.9 | 0.00 | 0.00 | 0.00 | 26 | 1017.1 |
| 20260510192046 | 83 | 137 | 1.7 | 2.6 | 0.00 | 0.00 | 0.00 | 24 | 1017.1 |
| 20260510191542 | 82 | 159 | 1.7 | 2.6 | 0.00 | 0.00 | 0.00 | 25 | 1017.0 |
| 20260510191038 | 83 | 278 | 1.7 | 2.6 | 0.00 | 0.00 | 0.00 | 25 | 1017.1 |
| 20260510190536 | 82 | 344 | 2.6 | 3.5 | 0.00 | 0.00 | 0.00 | 25 | 1017.0 |
| 20260510190034 | 82 | 331 | 0.9 | 5.2 | 0.00 | 0.00 | 0.00 | 25 | 1017.0 |
| 20260510185530 | 81 | 249 | 1.7 | 3.5 | 0.00 | 0.00 | 0.00 | 26 | 1017.2 |
| 20260510185027 | 81 | 32 | 1.7 | 6.1 | 0.00 | 0.00 | 0.00 | 25 | 1017.2 |
| 20260510184525 | 82 | 324 | 1.7 | 2.6 | 0.00 | 0.00 | 0.00 | 25 | 1017.0 |
| 20260510184020 | 83 | 252 | 1.7 | 1.7 | 0.00 | 0.00 | 0.00 | 26 | 1017.2 |
| 20260510183516 | 81 | 214 | 2.6 | 3.5 | 0.00 | 0.00 | 0.00 | 27 | 1017.2 |
| 20260510183011 | 82 | 300 | 1.7 | 2.6 | 0.00 | 0.00 | 0.00 | 26 | 1017.1 |
| 20260510182509 | 81 | 274 | 1.7 | 6.1 | 0.00 | 0.00 | 0.00 | 27 | 1017.2 |
| 20260510182009 | 81 | 204 | 2.6 | 2.6 | 0.00 | 0.00 | 0.00 | 27 | 1017.4 |
| 20260510181507 | 81 | 283 | 4.3 | 4.3 | 0.00 | 0.00 | 0.00 | 26 | 1017.4 |
| 20260510181003 | 81 | 188 | 1.7 | 3.5 | 0.00 | 0.00 | 0.00 | 27 | 1017.5 |
| 20260510180500 | 82 | 223 | 1.7 | 3.5 | 0.00 | 0.00 | 0.00 | 26 | 1017.6 |
| 20260510175957 | 81 | 179 | 0.0 | 3.5 | 0.00 | 0.00 | 0.00 | 28 | 1017.4 |
| 20260510175453 | 80 | 139 | 1.7 | 1.7 | 0.00 | 0.00 | 0.00 | 28 | 1017.6 |
| 20260510174948 | 80 | 226 | 2.6 | 3.5 | 0.00 | 0.00 | 0.00 | 29 | 1017.4 |
| 20260510174447 | 81 | 225 | 1.7 | 3.5 | 0.00 | 0.00 | 0.00 | 29 | 1017.7 |
| 20260510173943 | 81 | 207 | 1.7 | 2.6 | 0.00 | 0.00 | 0.00 | 27 | 1017.7 |
| 20260510173439 | 81 | 145 | 0.0 | 2.6 | 0.00 | 0.00 | 0.00 | 27 | 1017.7 |
| 20260510172936 | 81 | 155 | 1.7 | 1.7 | 0.00 | 0.00 | 0.00 | 27 | 1017.7 |
| 20260510172432 | 80 | 215 | 1.7 | 2.6 | 0.00 | 0.00 | 0.00 | 28 | 1017.6 |
| 20260510171928 | 80 | 281 | 0.0 | 1.7 | 0.00 | 0.00 | 0.00 | 28 | 1017.7 |
| 20260510171425 | 80 | 265 | 2.6 | 2.6 | 0.00 | 0.00 | 0.00 | 29 | 1017.9 |
| 20260510170922 | 80 | 195 | 0.0 | 1.7 | 0.00 | 0.00 | 0.00 | 28 | 1017.6 |
| 20260510170418 | 79 | 146 | 0.0 | 2.6 | 0.00 | 0.00 | 0.00 | 29 | 1017.8 |
| 20260510165913 | 79 | 252 | 0.9 | 5.2 | 0.00 | 0.00 | 0.00 | 29 | 1017.7 |
| 20260510165410 | 80 | 251 | 2.6 | 3.5 | 0.00 | 0.00 | 0.00 | 30 | 1017.9 |
| 20260510164907 | 80 | 132 | 0.0 | 2.6 | 0.00 | 0.00 | 0.00 | 30 | 1017.9 |
| 20260510164405 | 81 | 255 | 0.9 | 1.7 | 0.00 | 0.00 | 0.00 | 29 | 1018.1 |
| 20260510163905 | 80 | 169 | 0.9 | 1.7 | 0.00 | 0.00 | 0.00 | 29 | 1018.0 |
| 20260510163401 | 80 | 118 | 0.9 | 1.7 | 0.00 | 0.00 | 0.00 | 30 | 1018.0 |
| 20260510162855 | 80 | 67 | 1.7 | 1.7 | 0.00 | 0.00 | 0.00 | 29 | 1018.1 |
| 20260510162353 | 80 | 100 | 1.7 | 2.6 | 0.00 | 0.00 | 0.00 | 31 | 1018.4 |
| 20260510161848 | 78 | 76 | 3.5 | 3.5 | 0.00 | 0.00 | 0.00 | 31 | 1018.0 |
| 20260510161345 | 77 | 66 | 0.9 | 1.7 | 0.00 | 0.00 | 0.00 | 31 | 1018.2 |
| 20260510160842 | 77 | 306 | 3.5 | 4.3 | 0.00 | 0.00 | 0.00 | 30 | 1018.4 |
| 20260510160339 | 77 | 339 | 2.6 | 5.2 | 0.00 | 0.00 | 0.00 | 30 | 1018.2 |
| 20260510155838 | 78 | 308 | 4.3 | 6.1 | 0.00 | 0.00 | 0.00 | 31 | 1018.4 |
| 20260510155335 | 79 | 80 | 1.7 | 4.3 | 0.00 | 0.00 | 0.00 | 31 | 1018.2 |
| 20260510154831 | 78 | 60 | 1.7 | 1.7 | 0.00 | 0.00 | 0.00 | 33 | 1018.1 |
| 20260510154328 | 77 | 96 | 0.9 | 1.7 | 0.00 | 0.00 | 0.00 | 34 | 1018.2 |
| 20260510153827 | 77 | 2 | 1.7 | 5.2 | 0.00 | 0.00 | 0.00 | 35 | 1018.4 |
| 20260510153324 | 77 | 358 | 1.7 | 1.7 | 0.00 | 0.00 | 0.00 | 35 | 1018.2 |
| 20260510152821 | 76 | 34 | 1.7 | 2.6 | 0.00 | 0.00 | 0.00 | 36 | 1018.5 |
| 20260510152318 | 76 | 265 | 0.9 | 2.6 | 0.00 | 0.00 | 0.00 | 37 | 1018.5 |
| 20260510151814 | 75 | 40 | 0.0 | 4.3 | 0.00 | 0.00 | 0.00 | 36 | 1018.2 |
| 20260510151312 | 75 | 339 | 0.0 | 3.5 | 0.00 | 0.00 | 0.00 | 37 | 1018.2 |
| 20260510150808 | 74 | 245 | 0.0 | 1.7 | 0.00 | 0.00 | 0.00 | 42 | 1018.1 |
| 20260510150303 | 75 | 228 | 1.7 | 3.5 | 0.00 | 0.00 | 0.00 | 42 | 1018.2 |
| 20260510145800 | 75 | 166 | 0.0 | 1.7 | 0.00 | 0.00 | 0.00 | 41 | 1018.5 |
| 20260510145257 | 74 | 62 | 0.0 | 1.7 | 0.00 | 0.00 | 0.00 | 44 | 1018.6 |
| 20260510144753 | 73 | 51 | 2.6 | 2.6 | 0.00 | 0.00 | 0.00 | 46 | 1018.5 |
| 20260510144250 | 73 | 356 | 1.7 | 4.3 | 0.00 | 0.00 | 0.00 | 43 | 1018.6 |
| 20260510143749 | 73 | 108 | 0.0 | 2.6 | 0.00 | 0.00 | 0.00 | 46 | 1018.4 |
| 20260510143246 | 73 | 38 | 0.0 | 3.5 | 0.00 | 0.00 | 0.00 | 45 | 1018.5 |
| 20260510142742 | 72 | 273 | 1.7 | 1.7 | 0.00 | 0.00 | 0.00 | 46 | 1018.5 |
| 20260510142239 | 72 | 354 | 2.6 | 3.5 | 0.00 | 0.00 | 0.00 | 46 | 1018.6 |
| 20260510141736 | 72 | 96 | 1.7 | 2.6 | 0.00 | 0.00 | 0.00 | 50 | 1018.2 |
| 20260510141235 | 71 | 109 | 1.7 | 3.5 | 0.00 | 0.00 | 0.00 | 48 | 1018.4 |
| 20260510140731 | 71 | 79 | 0.0 | 2.6 | 0.00 | 0.00 | 0.00 | 51 | 1018.4 |
| 20260510140232 | 70 | 32 | 1.7 | 2.6 | 0.00 | 0.00 | 0.00 | 54 | 1018.4 |
| 20260510135726 | 70 | 59 | 1.7 | 2.6 | 0.00 | 0.00 | 0.00 | 53 | 1018.6 |
| 20260510135222 | 70 | 39 | 0.0 | 2.6 | 0.00 | 0.00 | 0.00 | 56 | 1018.4 |
| 20260510134720 | 70 | 195 | 0.0 | 3.5 | 0.00 | 0.00 | 0.00 | 56 | 1018.2 |
| 20260510134217 | 69 | 222 | 1.7 | 1.7 | 0.00 | 0.00 | 0.00 | 61 | 1018.4 |
| 20260510133712 | 69 | 200 | 0.9 | 2.6 | 0.00 | 0.00 | 0.00 | 62 | 1018.2 |
| 20260510133208 | 68 | 49 | 0.0 | 1.7 | 0.00 | 0.00 | 0.00 | 64 | 1018.1 |
| 20260510132704 | 68 | 162 | 0.0 | 2.6 | 0.00 | 0.00 | 0.00 | 64 | 1018.1 |
| 20260510132202 | 67 | 195 | 0.0 | 2.6 | 0.00 | 0.00 | 0.00 | 63 | 1018.4 |
| 20260510131659 | 67 | 171 | 0.9 | 2.6 | 0.00 | 0.00 | 0.00 | 67 | 1018.2 |
| 20260510131157 | 66 | 173 | 0.0 | 2.6 | 0.00 | 0.00 | 0.00 | 73 | 1018.2 |
| 20260510130653 | 65 | 209 | 1.7 | 1.7 | 0.00 | 0.00 | 0.00 | 75 | 1018.1 |
| 20260510130150 | 65 | 60 | 1.7 | 3.5 | 0.00 | 0.00 | 0.00 | 75 | 1018.1 |
| 20260510125646 | 64 | 304 | 0.9 | 2.6 | 0.00 | 0.00 | 0.00 | 77 | 1018.5 |
| 20260510125143 | 64 | 237 | 0.9 | 3.5 | 0.00 | 0.00 | 0.00 | 78 | 1018.1 |
| 20260510124640 | 64 | 17 | 0.0 | 1.7 | 0.00 | 0.00 | 0.00 | 82 | 1018.1 |
| 20260510124137 | 63 | 227 | 0.0 | 0.9 | 0.00 | 0.00 | 0.00 | 84 | 1018.1 |
| 20260510123632 | 62 | 37 | 0.0 | 1.7 | 0.00 | 0.00 | 0.00 | 86 | 1018.0 |
| 20260510123128 | 62 | 76 | 0.0 | 1.7 | 0.00 | 0.00 | 0.00 | 91 | 1017.9 |
| 20260510122624 | 61 | 84 | 1.7 | 1.7 | 0.00 | 0.00 | 0.00 | 95 | 1018.0 |
| 20260510122120 | 60 | 253 | 1.7 | 1.7 | 0.00 | 0.00 | 0.00 | 97 | 1017.8 |
| 20260510121618 | 60 | 91 | 0.9 | 1.7 | 0.00 | 0.00 | 0.00 | 98 | 1017.6 |
| 20260510121115 | 59 | 103 | 0.0 | 1.7 | 0.00 | 0.00 | 0.00 | 98 | 1017.6 |
| 20260510120613 | 59 | 124 | 0.0 | 1.7 | 0.00 | 0.00 | 0.00 | 98 | 1017.2 |
| 20260510120108 | 59 | 102 | 0.9 | 1.7 | 0.00 | 0.00 | 0.00 | 98 | 1017.3 |
| 20260510115605 | 58 | 135 | 0.0 | 1.7 | 0.00 | 0.00 | 0.00 | 98 | 1017.3 |
| 20260510115102 | 58 | 218 | 0.0 | 0.9 | 0.00 | 0.00 | 0.00 | 98 | 1017.0 |
| 20260510114558 | 58 | 209 | 0.0 | 0.9 | 0.00 | 0.00 | 0.00 | 98 | 1017.2 |
| 20260510114054 | 57 | 146 | 0.0 | 1.7 | 0.00 | 0.00 | 0.00 | 98 | 1017.0 |
| 20260510113549 | 57 | 80 | 0.0 | 1.7 | 0.00 | 0.00 | 0.00 | 98 | 1016.9 |
| 20260510113047 | 56 | 139 | 0.0 | 1.7 | 0.00 | 0.00 | 0.00 | 98 | 1017.0 |
| 20260510112543 | 56 | 121 | 1.7 | 1.7 | 0.00 | 0.00 | 0.00 | 98 | 1016.9 |
| 20260510112040 | 55 | 135 | 0.0 | 1.7 | 0.00 | 0.00 | 0.00 | 98 | 1016.8 |
| 20260510111537 | 55 | 91 | 0.9 | 1.7 | 0.00 | 0.00 | 0.00 | 98 | 1016.7 |
| 20260510111033 | 55 | 125 | 0.0 | 1.7 | 0.00 | 0.00 | 0.00 | 98 | 1016.5 |
| 20260510110529 | 55 | 141 | 0.0 | 1.7 | 0.00 | 0.00 | 0.00 | 97 | 1016.6 |
| 20260510110025 | 54 | 85 | 0.0 | 1.7 | 0.00 | 0.00 | 0.00 | 97 | 1016.3 |
| 20260510105520 | 54 | 309 | 0.0 | 0.9 | 0.00 | 0.00 | 0.00 | 97 | 1016.4 |
| 20260510105016 | 54 | 45 | 0.0 | 1.7 | 0.00 | 0.00 | 0.00 | 97 | 1016.2 |
| 20260510104513 | 54 | 74 | 0.9 | 1.7 | 0.00 | 0.00 | 0.00 | 97 | 1016.1 |
| 20260510104009 | 54 | 114 | 0.9 | 2.6 | 0.00 | 0.00 | 0.00 | 97 | 1016.1 |
| 20260510103506 | 54 | 77 | 1.7 | 1.7 | 0.00 | 0.00 | 0.00 | 97 | 1016.0 |
| 20260510103002 | 54 | 79 | 0.9 | 1.7 | 0.00 | 0.00 | 0.00 | 97 | 1016.0 |
| 20260510102458 | 55 | 78 | 1.7 | 1.7 | 0.00 | 0.00 | 0.00 | 97 | 1015.8 |
| 20260510101954 | 55 | 74 | 0.9 | 1.7 | 0.00 | 0.00 | 0.00 | 97 | 1015.8 |
| 20260510101452 | 55 | 117 | 0.9 | 1.7 | 0.00 | 0.00 | 0.00 | 97 | 1015.8 |
| 20260510100950 | 55 | 110 | 0.9 | 1.7 | 0.00 | 0.00 | 0.00 | 97 | 1015.7 |
| 20260510100446 | 55 | 123 | 0.0 | 1.7 | 0.00 | 0.00 | 0.00 | 97 | 1015.6 |
| 20260510095943 | 55 | 138 | 1.7 | 1.7 | 0.00 | 0.00 | 0.00 | 97 | 1015.5 |
| 20260510095438 | 55 | 111 | 0.9 | 1.7 | 0.00 | 0.00 | 0.00 | 97 | 1015.5 |
| 20260510094937 | 55 | 80 | 0.9 | 1.7 | 0.00 | 0.00 | 0.00 | 97 | 1015.5 |
| 20260510094432 | 55 | 100 | 1.7 | 1.7 | 0.00 | 0.00 | 0.00 | 97 | 1015.4 |
| 20260510093929 | 56 | 108 | 1.7 | 1.7 | 0.00 | 0.00 | 0.00 | 97 | 1015.5 |
| 20260510093424 | 56 | 94 | 0.9 | 1.7 | 0.00 | 0.00 | 0.00 | 96 | 1015.4 |
| 20260510092921 | 56 | 100 | 1.7 | 1.7 | 0.00 | 0.00 | 0.00 | 96 | 1015.4 |
| 20260510092419 | 56 | 95 | 0.0 | 1.7 | 0.00 | 0.00 | 0.00 | 96 | 1015.4 |
| 20260510091918 | 56 | 87 | 0.9 | 1.7 | 0.00 | 0.00 | 0.00 | 96 | 1015.2 |
| 20260510091416 | 56 | 104 | 0.9 | 1.7 | 0.00 | 0.00 | 0.00 | 96 | 1015.4 |
| 20260510090912 | 56 | 118 | 1.7 | 1.7 | 0.00 | 0.00 | 0.00 | 96 | 1015.3 |
| 20260510090409 | 57 | 128 | 1.7 | 1.7 | 0.00 | 0.00 | 0.00 | 96 | 1015.3 |
| 20260510085905 | 57 | 120 | 0.9 | 1.7 | 0.00 | 0.00 | 0.00 | 96 | 1015.2 |
| 20260510085400 | 57 | 113 | 0.9 | 1.7 | 0.00 | 0.00 | 0.00 | 96 | 1015.2 |
| 20260510084855 | 57 | 68 | 0.9 | 1.7 | 0.00 | 0.00 | 0.00 | 96 | 1014.9 |
| 20260510084353 | 57 | 97 | 0.9 | 1.7 | 0.00 | 0.00 | 0.00 | 96 | 1015.0 |
| 20260510083849 | 57 | 77 | 0.9 | 1.7 | 0.00 | 0.00 | 0.00 | 96 | 1015.1 |
| 20260510083346 | 57 | 76 | 0.0 | 0.0 | 0.00 | 0.00 | 0.00 | 96 | 1014.9 |
| 20260510082841 | 57 | 84 | 0.0 | 0.9 | 0.00 | 0.00 | 0.00 | 96 | 1014.9 |
| 20260510082339 | 57 | 98 | 0.0 | 0.9 | 0.00 | 0.00 | 0.00 | 96 | 1014.9 |
| 20260510081838 | 57 | 116 | 0.0 | 0.9 | 0.00 | 0.00 | 0.00 | 96 | 1014.9 |
| 20260510081334 | 57 | 119 | 0.9 | 1.7 | 0.00 | 0.00 | 0.00 | 96 | 1014.8 |
| 20260510080831 | 57 | 123 | 0.9 | 1.7 | 0.00 | 0.00 | 0.00 | 95 | 1014.7 |
| 20260510080325 | 57 | 104 | 0.9 | 1.7 | 0.00 | 0.00 | 0.00 | 95 | 1014.6 |
| 20260510075822 | 57 | 87 | 0.9 | 0.9 | 0.00 | 0.00 | 0.00 | 95 | 1014.4 |
| 20260510075320 | 58 | 89 | 0.0 | 0.9 | 0.00 | 0.00 | 0.00 | 95 | 1014.4 |
| 20260510074816 | 58 | 126 | 0.9 | 1.7 | 0.00 | 0.00 | 0.00 | 95 | 1014.4 |
| 20260510074314 | 58 | 118 | 1.7 | 1.7 | 0.00 | 0.00 | 0.00 | 95 | 1014.4 |
| 20260510073809 | 58 | 120 | 0.9 | 1.7 | 0.00 | 0.00 | 0.00 | 95 | 1014.4 |
| 20260510073306 | 59 | 126 | 0.0 | 0.9 | 0.00 | 0.00 | 0.00 | 95 | 1014.4 |
| 20260510072801 | 58 | 134 | 0.0 | 0.9 | 0.00 | 0.00 | 0.00 | 95 | 1014.4 |
| 20260510072258 | 58 | 102 | 0.0 | 0.9 | 0.00 | 0.00 | 0.00 | 95 | 1014.3 |
| 20260510071754 | 58 | 113 | 0.0 | 0.9 | 0.00 | 0.00 | 0.00 | 95 | 1014.4 |
| 20260510071251 | 58 | 100 | 0.9 | 0.9 | 0.00 | 0.00 | 0.00 | 94 | 1014.2 |
| 20260510070750 | 59 | 107 | 1.7 | 1.7 | 0.00 | 0.00 | 0.00 | 94 | 1014.4 |
| 20260510070247 | 59 | 100 | 1.7 | 1.7 | 0.00 | 0.00 | 0.00 | 94 | 1014.3 |
| 20260510065746 | 59 | 105 | 1.7 | 1.7 | 0.00 | 0.00 | 0.00 | 94 | 1014.3 |
| 20260510065244 | 59 | 89 | 0.0 | 1.7 | 0.00 | 0.00 | 0.00 | 94 | 1014.2 |
| 20260510064740 | 59 | 113 | 0.0 | 1.7 | 0.00 | 0.00 | 0.00 | 94 | 1014.3 |
| 20260510064238 | 59 | 123 | 1.7 | 1.7 | 0.00 | 0.00 | 0.00 | 94 | 1014.6 |
| 20260510063734 | 59 | 100 | 0.9 | 1.7 | 0.00 | 0.00 | 0.00 | 93 | 1014.3 |
| 20260510063230 | 60 | 107 | 0.9 | 1.7 | 0.00 | 0.00 | 0.00 | 93 | 1014.3 |
| 20260510062727 | 60 | 101 | 0.9 | 1.7 | 0.00 | 0.00 | 0.00 | 93 | 1014.4 |
| 20260510062223 | 60 | 103 | 0.9 | 0.9 | 0.00 | 0.00 | 0.00 | 93 | 1014.4 |
| 20260510061718 | 60 | 148 | 0.9 | 0.9 | 0.00 | 0.00 | 0.00 | 93 | 1014.7 |
| 20260510061216 | 60 | 130 | 0.0 | 0.9 | 0.00 | 0.00 | 0.00 | 93 | 1014.6 |
| 20260510060712 | 60 | 137 | 1.7 | 1.7 | 0.00 | 0.00 | 0.00 | 93 | 1014.4 |
| 20260510060209 | 60 | 94 | 0.9 | 1.7 | 0.00 | 0.00 | 0.00 | 92 | 1014.6 |
| 20260510055706 | 60 | 69 | 0.9 | 0.9 | 0.00 | 0.00 | 0.00 | 92 | 1014.6 |
| 20260510055203 | 60 | 109 | 0.9 | 1.7 | 0.00 | 0.00 | 0.00 | 92 | 1014.3 |
| 20260510054658 | 61 | 117 | 0.9 | 0.9 | 0.00 | 0.00 | 0.00 | 92 | 1014.3 |
| 20260510054154 | 61 | 89 | 1.7 | 1.7 | 0.00 | 0.00 | 0.00 | 92 | 1014.4 |
| 20260510053654 | 61 | 89 | 0.0 | 0.9 | 0.00 | 0.00 | 0.00 | 91 | 1014.7 |
| 20260510053151 | 61 | 109 | 0.9 | 1.7 | 0.00 | 0.00 | 0.00 | 90 | 1014.8 |
| 20260510052646 | 61 | 127 | 1.7 | 2.6 | 0.00 | 0.00 | 0.00 | 90 | 1014.7 |
| 20260510052143 | 62 | 128 | 0.9 | 1.7 | 0.00 | 0.00 | 0.00 | 90 | 1014.7 |
| 20260510051639 | 62 | 99 | 0.9 | 0.9 | 0.00 | 0.00 | 0.00 | 90 | 1014.6 |
| 20260510051135 | 62 | 31 | 0.0 | 0.9 | 0.00 | 0.00 | 0.00 | 90 | 1014.8 |
| 20260510050633 | 62 | 162 | 0.0 | 0.9 | 0.00 | 0.00 | 0.00 | 90 | 1014.7 |
| 20260510050130 | 62 | 110 | 0.0 | 0.9 | 0.00 | 0.00 | 0.00 | 89 | 1014.9 |
| 20260510045626 | 62 | 142 | 0.9 | 1.7 | 0.00 | 0.00 | 0.00 | 90 | 1014.8 |
| 20260510045123 | 62 | 156 | 1.7 | 1.7 | 0.00 | 0.00 | 0.00 | 90 | 1014.9 |
| 20260510044619 | 62 | 126 | 0.9 | 1.7 | 0.00 | 0.00 | 0.00 | 90 | 1014.9 |
| 20260510044117 | 62 | 119 | 0.9 | 1.7 | 0.00 | 0.00 | 0.00 | 90 | 1014.9 |
| 20260510043612 | 62 | 129 | 0.0 | 1.7 | 0.00 | 0.00 | 0.00 | 90 | 1014.9 |
| 20260510043109 | 62 | 108 | 0.9 | 1.7 | 0.00 | 0.00 | 0.00 | 89 | 1014.7 |
| 20260510042607 | 62 | 105 | 1.7 | 1.7 | 0.00 | 0.00 | 0.00 | 89 | 1014.8 |
| 20260510042102 | 62 | 111 | 1.7 | 1.7 | 0.00 | 0.00 | 0.00 | 89 | 1015.0 |
| 20260510041600 | 62 | 119 | 1.7 | 1.7 | 0.00 | 0.00 | 0.00 | 88 | 1014.8 |
| 20260510041057 | 62 | 129 | 0.9 | 1.7 | 0.00 | 0.00 | 0.00 | 88 | 1014.7 |
| 20260510040554 | 62 | 141 | 0.9 | 1.7 | 0.00 | 0.00 | 0.00 | 88 | 1014.8 |
| 20260510040050 | 62 | 136 | 0.9 | 1.7 | 0.00 | 0.00 | 0.00 | 88 | 1014.9 |
| 20260510035546 | 62 | 130 | 1.7 | 1.7 | 0.00 | 0.00 | 0.00 | 87 | 1014.7 |
| 20260510035046 | 63 | 48 | 0.9 | 1.7 | 0.00 | 0.00 | 0.00 | 86 | 1014.8 |
| 20260510034544 | 63 | 100 | 0.0 | 0.9 | 0.00 | 0.00 | 0.00 | 86 | 1014.9 |
| 20260510034041 | 63 | 135 | 1.7 | 1.7 | 0.00 | 0.00 | 0.00 | 85 | 1014.9 |
| 20260510033537 | 63 | 121 | 0.9 | 1.7 | 0.00 | 0.00 | 0.00 | 85 | 1014.8 |
| 20260510033035 | 64 | 112 | 0.9 | 0.9 | 0.00 | 0.00 | 0.00 | 84 | 1014.9 |
| 20260510032531 | 64 | 126 | 0.9 | 1.7 | 0.00 | 0.00 | 0.00 | 84 | 1014.8 |
| 20260510032026 | 64 | 131 | 0.0 | 0.9 | 0.00 | 0.00 | 0.00 | 83 | 1014.8 |
| 20260510031522 | 64 | 126 | 0.9 | 1.7 | 0.00 | 0.00 | 0.00 | 83 | 1014.8 |
| 20260510031018 | 64 | 135 | 0.0 | 1.7 | 0.00 | 0.00 | 0.00 | 83 | 1014.7 |
| 20260510030513 | 64 | 132 | 0.0 | 1.7 | 0.00 | 0.00 | 0.00 | 82 | 1014.9 |
| 20260510030011 | 65 | 148 | 0.9 | 1.7 | 0.00 | 0.00 | 0.00 | 82 | 1014.8 |
| 20260510025508 | 65 | 129 | 1.7 | 1.7 | 0.00 | 0.00 | 0.00 | 82 | 1014.6 |
| 20260510025006 | 65 | 127 | 1.7 | 1.7 | 0.00 | 0.00 | 0.00 | 81 | 1014.4 |
| 20260510024502 | 65 | 128 | 1.7 | 1.7 | 0.00 | 0.00 | 0.00 | 81 | 1014.8 |
| 20260510023958 | 65 | 127 | 0.9 | 1.7 | 0.00 | 0.00 | 0.00 | 81 | 1014.7 |
| 20260510023454 | 65 | 134 | 0.0 | 1.7 | 0.00 | 0.00 | 0.00 | 81 | 1014.6 |
| 20260510022951 | 65 | 129 | 0.9 | 1.7 | 0.00 | 0.00 | 0.00 | 81 | 1014.4 |
| 20260510022451 | 65 | 146 | 0.9 | 1.7 | 0.00 | 0.00 | 0.00 | 80 | 1014.4 |
| 20260510021950 | 65 | 125 | 1.7 | 1.7 | 0.00 | 0.00 | 0.00 | 80 | 1014.3 |
| 20260510021448 | 65 | 117 | 1.7 | 1.7 | 0.00 | 0.00 | 0.00 | 79 | 1014.4 |
| 20260510020945 | 66 | 125 | 1.7 | 1.7 | 0.00 | 0.00 | 0.00 | 79 | 1014.4 |
| 20260510020444 | 66 | 135 | 0.9 | 1.7 | 0.00 | 0.00 | 0.00 | 78 | 1014.4 |
| 20260510015940 | 66 | 140 | 0.9 | 1.7 | 0.00 | 0.00 | 0.00 | 78 | 1014.2 |
| 20260510015436 | 66 | 148 | 0.0 | 1.7 | 0.00 | 0.00 | 0.00 | 78 | 1014.2 |
| 20260510014931 | 66 | 154 | 0.9 | 1.7 | 0.00 | 0.00 | 0.00 | 78 | 1014.2 |
| 20260510014430 | 66 | 156 | 0.9 | 1.7 | 0.00 | 0.00 | 0.00 | 77 | 1014.2 |
| 20260510013926 | 66 | 142 | 0.9 | 1.7 | 0.00 | 0.00 | 0.00 | 77 | 1013.9 |
| 20260510013421 | 66 | 143 | 0.9 | 1.7 | 0.00 | 0.00 | 0.00 | 77 | 1013.8 |
| 20260510012916 | 66 | 145 | 0.9 | 1.7 | 0.00 | 0.00 | 0.00 | 77 | 1013.9 |
| 20260510012412 | 66 | 145 | 0.9 | 1.7 | 0.00 | 0.00 | 0.00 | 77 | 1013.7 |
| 20260510011906 | 66 | 131 | 1.7 | 1.7 | 0.00 | 0.00 | 0.00 | 76 | 1013.5 |
| 20260510011402 | 66 | 137 | 2.6 | 2.6 | 0.00 | 0.00 | 0.00 | 76 | 1013.5 |
| 20260510010858 | 67 | 132 | 0.9 | 1.7 | 0.00 | 0.00 | 0.00 | 75 | 1013.3 |
| 20260510010355 | 67 | 114 | 0.9 | 1.7 | 0.00 | 0.00 | 0.00 | 75 | 1013.5 |
| 20260510005852 | 67 | 142 | 0.9 | 1.7 | 0.00 | 0.00 | 0.00 | 74 | 1013.3 |
| 20260510005348 | 67 | 145 | 0.0 | 1.7 | 0.00 | 0.00 | 0.00 | 74 | 1013.1 |
| 20260510004846 | 68 | 130 | 0.9 | 1.7 | 0.00 | 0.00 | 0.00 | 73 | 1013.2 |
| 20260510004343 | 68 | 128 | 1.7 | 1.7 | 0.00 | 0.00 | 0.00 | 72 | 1013.0 |
| 20260510003841 | 68 | 119 | 1.7 | 1.7 | 0.00 | 0.00 | 0.00 | 72 | 1012.9 |
| 20260510003338 | 68 | 117 | 0.0 | 1.7 | 0.00 | 0.00 | 0.00 | 71 | 1012.9 |
| 20260510002836 | 68 | 168 | 0.9 | 2.6 | 0.00 | 0.00 | 0.00 | 70 | 1012.7 |
| 20260510002334 | 69 | 161 | 0.9 | 1.7 | 0.00 | 0.00 | 0.00 | 70 | 1012.8 |
| 20260510001830 | 69 | 159 | 1.7 | 2.6 | 0.00 | 0.00 | 0.00 | 69 | 1012.7 |
| 20260510001329 | 69 | 158 | 0.9 | 2.6 | 0.00 | 0.00 | 0.00 | 69 | 1012.8 |
| 20260510000824 | 69 | 145 | 1.7 | 1.7 | 0.00 | 0.00 | 0.00 | 69 | 1012.7 |
| 20260510000322 | 70 | 158 | 1.7 | 1.7 | 0.00 | 0.00 | 0.00 | 68 | 1012.7 |
| 20260509235819 | 70 | 203 | 0.0 | 1.7 | 0.00 | 0.00 | 0.00 | 68 | 1012.6 |
| 20260509235315 | 70 | 213 | 0.9 | 2.6 | 0.00 | 0.00 | 0.00 | 68 | 1012.7 |
| 20260509234811 | 70 | 155 | 1.7 | 1.7 | 0.00 | 0.00 | 0.00 | 68 | 1012.6 |
| 20260509234308 | 70 | 123 | 1.7 | 1.7 | 0.00 | 0.00 | 0.00 | 67 | 1012.5 |
| 20260509233806 | 71 | 152 | 1.7 | 1.7 | 0.00 | 0.00 | 0.00 | 67 | 1012.5 |
| 20260509233303 | 71 | 184 | 0.0 | 2.6 | 0.00 | 0.00 | 0.00 | 66 | 1012.6 |
| 20260509232759 | 71 | 153 | 0.9 | 3.5 | 0.00 | 0.00 | 0.00 | 66 | 1012.3 |
| 20260509232257 | 71 | 138 | 2.6 | 2.6 | 0.00 | 0.00 | 0.00 | 65 | 1012.1 |
| 20260509231753 | 72 | 153 | 1.7 | 3.5 | 0.00 | 0.00 | 0.00 | 64 | 1012.3 |
| 20260509231250 | 72 | 176 | 0.9 | 2.6 | 0.00 | 0.00 | 0.00 | 63 | 1012.4 |
| 20260509230748 | 72 | 144 | 0.9 | 2.6 | 0.00 | 0.00 | 0.00 | 64 | 1012.2 |
| 20260509230244 | 73 | 158 | 0.9 | 1.7 | 0.00 | 0.00 | 0.00 | 63 | 1012.1 |
| 20260509225739 | 73 | 183 | 1.7 | 2.6 | 0.00 | 0.00 | 0.00 | 63 | 1012.2 |
| 20260509225236 | 73 | 171 | 1.7 | 3.5 | 0.00 | 0.00 | 0.00 | 62 | 1012.0 |
| 20260509224731 | 73 | 165 | 1.7 | 3.5 | 0.00 | 0.00 | 0.00 | 61 | 1012.0 |
| 20260509224229 | 73 | 162 | 1.7 | 1.7 | 0.00 | 0.00 | 0.00 | 61 | 1012.0 |
| 20260509223726 | 73 | 172 | 1.7 | 1.7 | 0.00 | 0.00 | 0.00 | 61 | 1011.9 |
| 20260509223223 | 73 | 195 | 1.7 | 3.5 | 0.00 | 0.00 | 0.00 | 60 | 1011.9 |
| 20260509222719 | 74 | 188 | 1.7 | 2.6 | 0.00 | 0.00 | 0.00 | 57 | 1012.0 |
| 20260509222215 | 74 | 168 | 1.7 | 2.6 | 0.00 | 0.00 | 0.00 | 58 | 1011.7 |
| 20260509221711 | 74 | 295 | 2.6 | 2.6 | 0.00 | 0.00 | 0.00 | 58 | 1011.9 |
| 20260509221207 | 75 | 190 | 3.5 | 3.5 | 0.00 | 0.00 | 0.00 | 56 | 1012.0 |
| 20260509220703 | 75 | 89 | 0.0 | 2.6 | 0.00 | 0.00 | 0.00 | 56 | 1012.1 |
| 20260509220200 | 76 | 194 | 1.7 | 2.6 | 0.00 | 0.00 | 0.00 | 55 | 1011.9 |
| 20260509215655 | 76 | 176 | 1.7 | 3.5 | 0.00 | 0.00 | 0.00 | 55 | 1011.8 |
| 20260509215152 | 76 | 181 | 1.7 | 3.5 | 0.00 | 0.00 | 0.00 | 53 | 1011.9 |
| 20260509214649 | 76 | 180 | 0.9 | 4.3 | 0.00 | 0.00 | 0.00 | 55 | 1011.8 |
| 20260509214146 | 76 | 183 | 2.6 | 4.3 | 0.00 | 0.00 | 0.00 | 55 | 1012.1 |
| 20260509213643 | 76 | 241 | 1.7 | 2.6 | 0.00 | 0.00 | 0.00 | 54 | 1011.9 |
| 20260509213139 | 75 | 205 | 3.5 | 5.2 | 0.00 | 0.00 | 0.00 | 55 | 1011.8 |
| 20260509212636 | 75 | 211 | 2.6 | 3.5 | 0.00 | 0.00 | 0.00 | 57 | 1011.7 |
| 20260509212133 | 75 | 278 | 1.7 | 3.5 | 0.00 | 0.00 | 0.00 | 56 | 1011.8 |
| 20260509211629 | 75 | 190 | 1.7 | 3.5 | 0.00 | 0.00 | 0.00 | 56 | 1012.0 |
| 20260509211126 | 75 | 304 | 1.7 | 3.5 | 0.00 | 0.00 | 0.00 | 54 | 1012.0 |
| 20260509210623 | 75 | 198 | 2.6 | 4.3 | 0.00 | 0.00 | 0.00 | 55 | 1011.7 |
| 20260509210120 | 76 | 182 | 3.5 | 3.5 | 0.00 | 0.00 | 0.00 | 54 | 1011.8 |
| 20260509205614 | 75 | 143 | 1.7 | 2.6 | 0.00 | 0.00 | 0.00 | 56 | 1011.7 |
| 20260509205109 | 75 | 307 | 1.7 | 3.5 | 0.00 | 0.00 | 0.00 | 55 | 1011.5 |
| 20260509204606 | 74 | 153 | 0.9 | 3.5 | 0.00 | 0.00 | 0.00 | 57 | 1011.7 |
| 20260509204102 | 74 | 222 | 1.7 | 5.2 | 0.00 | 0.00 | 0.00 | 59 | 1011.8 |
| 20260509203558 | 74 | 273 | 3.5 | 3.5 | 0.00 | 0.00 | 0.00 | 59 | 1011.7 |
| 20260509203057 | 73 | 340 | 0.9 | 5.2 | 0.00 | 0.00 | 0.00 | 60 | 1012.2 |
| 20260509202556 | 74 | 180 | 1.7 | 2.6 | 0.00 | 0.00 | 0.00 | 59 | 1012.0 |